Вернуться в каталог

CORVUS BC2

АктивенНаукаSSO
NORAD 42846·PAYLOAD·🇺🇸 United States

Запущен Jul 14, 2017 с Baikonur Cosmodrome

Loading…

Ближайшие Пролёты (ближайшие 24 часа)

TLE

СвежийSource: Space-Track

Эпоха: Sep 14, 2026, 06:19 UTC

1 42846U 17042X   26257.26322477  .00003310  00000-0  22617-3 0  9991
2 42846  97.4174  55.2390 0013250 161.5997 198.5713 15.06757962500479

Отслеживайте CORVUS BC2 в реальном времени с AllMySat

Download on the App Store